レモン-パンスターズ彗星

457P/Lemmon-PanSTARRS (2024)

English version
Home page
Updated on June 22, 2024

---------------------------------------------------------------------

・ プロフィール

・ 軌道要素

Epoch 2023 Feb. 25.0 TT = JDT 2460000.5                                         
T 2024 Aug. 20.64369 TT                                 Rudenko                 
q   2.3310346            (2000.0)            P               Q                  
n   0.22904449     Peri.  104.50294     +0.18213187     +0.98325333             
a   2.6455917      Node   175.97456     -0.93357563     +0.17496363             
e   0.1188986      Incl.    5.22556     -0.30864953     +0.05099631             
P   4.30                                                                        
>From 91 observations 2016 July 3-2021 July 22, mean residual 0".2.              

・ 光度変化

        m1 = 15.5 + 5 logΔ + 10.0 log r

---------------------------------------------------------------------

軌道要素はM.P.E.C. 2023-F100に掲載されたものです。
光度グラフはComet for Windowsで作成したものです。

---------------------------------------------------------------------

Copyright(C) Seiichi Yoshida (comet@aerith.net). All rights reserved.